Weather History for Annette Island, AK

Change the Weather History Date:

Tuesday, November 19, 2013

  Actual Average Record
Temperature  
Mean Temperature 25 °F 39 °F  
Max Temperature 30 °F 44 °F 52 °F (2001)
Min Temperature 19 °F 35 °F 16 °F (1963)
Degree Days  
Heating Degree Days 40 26  
Month to date heating degree days 498 459  
Since 1 July heating degree days 1572 1759  
Cooling Degree Days 0    
Month to date cooling degree days 0  
Year to date cooling degree days 22  
Moisture  
Dew Point 21 °F    
Average Humidity 0    
Maximum Humidity 0    
Minimum Humidity 0    
Precipitation  
Precipitation 0.34 in 0.39 in 2.03 in (1980)
Month to date precipitation 5.56 8.07  
Year to date precipitation 73.37 86.69  
Snow  
Snow 3.50 in 0.10 in 5.00 in (1973)
Month to date snowfall 5.7 1.7  
Since 1 July snowfall 5.7 1.8  
Since 1 September snowfall 5.7 1.8  
Snow Depth 1.00 in    
Sea Level Pressure  
Sea Level Pressure 29.97 in    
Wind  
Wind Speed 5 mph (ESE)    
Max Wind Speed 15 mph    
Max Gust Speed 20 mph    
Visibility 6 miles    
Events Fog , Snow    
T = Trace of Precipitation, MM = Missing Value Source: NWS Daily Summary

Daily Weather History Graph

Daily Weather History Graph

Search for Another Location

Airport:

Trip Planner

Search our weather history database for the weather conditions in past years. The results will help you decide how hot, cold, wet, or windy it might be!

Date:

Astronomy

Nov. 19, 2013 Rise Set
Actual Time 7:27 AM AKST 3:35 PM AKST
Civil Twilight 6:45 AM AKST 4:17 PM AKST
Nautical Twilight 6:00 AM AKST 5:02 PM AKST
Astronomical Twilight 5:17 AM AKST 5:45 PM AKST
Moon 5:29 PM AKST (11/19) 9:15 AM AKST (11/19)
Length of Visible Light 9h 32m
Length of Day
8h 08m
Waning Gibbous, 95% of the Moon is Illuminated
Nov 19
Waning Gibbous
Nov 25
Last Quarter
Dec 2
New
Dec 9
First Quarter
Dec 17
Full

Hourly Weather History & Observations

Time (AKST) Temp. Windchill Dew Point Humidity Pressure Visibility Wind Dir Wind Speed Gust Speed Precip Events Conditions
12:53 AM 21.9 °F 14.5 °F 14.0 °F 72% 29.91 in 10.0 mi NNW 5.8 mph - N/A   Clear
1:53 AM 21.9 °F 12.5 °F 14.0 °F 72% 29.92 in 10.0 mi NNW 8.1 mph - N/A   Clear
3:53 AM 19.9 °F - 14.0 °F 78% 29.95 in 10.0 mi Calm Calm - N/A   Clear
4:53 AM 19.9 °F 14.9 °F 12.9 °F 74% 29.96 in 10.0 mi Variable 3.5 mph - N/A   Clear
5:53 AM 21.0 °F 14.6 °F 14.0 °F 74% 29.98 in 10.0 mi North 4.6 mph - N/A   Clear
6:53 AM 19.9 °F 14.9 °F 14.0 °F 78% 29.98 in 10.0 mi Variable 3.5 mph - N/A   Clear
7:53 AM 19.0 °F - 15.1 °F 85% 29.99 in 10.0 mi Calm Calm - N/A   Clear
8:53 AM 25.0 °F - 15.1 °F 66% 30.00 in 10.0 mi Calm Calm - N/A   Clear
9:53 AM 26.1 °F - 16.0 °F 66% 30.00 in 10.0 mi Calm Calm - N/A   Mostly Cloudy
10:53 AM 27.0 °F - 15.1 °F 61% 30.01 in 10.0 mi Calm Calm - N/A   Overcast
11:53 AM 27.0 °F 20.5 °F 15.1 °F 61% 30.01 in 10.0 mi ESE 5.8 mph - N/A   Overcast
12:53 PM 28.0 °F 20.0 °F 18.0 °F 66% 30.00 in 10.0 mi ESE 8.1 mph - N/A   Overcast
1:49 PM 28.4 °F 19.7 °F 21.2 °F 74% 29.98 in 3.0 mi ESE 9.2 mph - 0.00 in Snow Light Snow
1:53 PM 28.0 °F 19.3 °F 21.9 °F 78% 29.98 in 2.0 mi ESE 9.2 mph - 0.00 in Snow Light Snow
2:19 PM 27.0 °F 16.7 °F 21.9 °F 81% 29.97 in 1.2 mi ESE 11.5 mph - 0.00 in Snow Light Snow
2:41 PM 27.0 °F 18.0 °F 23.0 °F 85% 29.97 in 2.5 mi East 9.2 mph 17.3 mph 0.00 in Snow Light Snow
2:49 PM 26.6 °F 16.8 °F 23.0 °F 86% 29.97 in 4.0 mi ESE 10.4 mph 18.4 mph 0.00 in Snow Light Snow
2:53 PM 28.0 °F 19.3 °F 23.0 °F 81% 29.98 in 5.0 mi ESE 9.2 mph 18.4 mph 0.00 in Snow Light Snow
3:03 PM 28.0 °F 18.1 °F 23.0 °F 81% 29.97 in 8.0 mi East 11.5 mph 18.4 mph 0.00 in Snow Light Snow
3:19 PM 28.0 °F 18.6 °F 23.0 °F 81% 29.96 in 2.0 mi ESE 10.4 mph - 0.00 in Snow Light Snow
3:42 PM 28.0 °F 18.6 °F 24.1 °F 85% 29.96 in 1.5 mi ESE 10.4 mph 18.4 mph 0.00 in Snow Light Snow
3:53 PM 28.0 °F 19.3 °F 25.0 °F 88% 29.97 in 0.8 mi ESE 9.2 mph 18.4 mph 0.01 in Snow Light Snow
4:53 PM 28.0 °F 18.6 °F 27.0 °F 96% 29.96 in 0.5 mi East 10.4 mph - 0.09 in Fog , Snow Snow
5:39 PM 28.0 °F 18.1 °F 27.0 °F 96% 29.95 in 0.5 mi ESE 11.5 mph 18.4 mph 0.09 in Fog , Snow Snow
5:53 PM 28.0 °F 18.1 °F 27.0 °F 96% 29.96 in 0.5 mi ESE 11.5 mph - 0.12 in Fog , Snow Snow
6:37 PM 27.0 °F 17.3 °F 27.0 °F 100% 29.95 in 0.5 mi East 10.4 mph 20.7 mph 0.08 in Fog , Snow Snow
6:51 PM 28.4 °F 20.4 °F 26.6 °F 93% 29.95 in 0.8 mi East 8.1 mph 16.1 mph 0.11 in Snow Light Snow
6:53 PM 28.0 °F 19.3 °F 27.0 °F 96% 29.96 in 0.8 mi East 9.2 mph 16.1 mph 0.11 in Snow Light Snow
7:01 PM 28.0 °F 18.6 °F 26.1 °F 92% 29.95 in 1.2 mi ESE 10.4 mph - 0.00 in Snow Light Snow
7:11 PM 28.0 °F 18.6 °F 25.0 °F 88% 29.95 in 2.0 mi ESE 10.4 mph 17.3 mph 0.01 in Snow Light Snow
7:17 PM 28.0 °F 19.3 °F 25.0 °F 88% 29.95 in 3.0 mi ESE 9.2 mph - 0.01 in Snow Light Snow
7:34 PM 28.0 °F 19.3 °F 24.1 °F 85% 29.95 in 9.0 mi ESE 9.2 mph - 0.01 in Snow Light Snow
7:41 PM 28.0 °F 19.3 °F 24.1 °F 85% 29.96 in 9.0 mi ESE 9.2 mph - 0.01 in   Mostly Cloudy
7:53 PM 28.0 °F 18.6 °F 23.0 °F 81% 29.96 in 10.0 mi ESE 10.4 mph - 0.01 in   Partly Cloudy
8:53 PM 28.0 °F 22.8 °F 23.0 °F 81% 29.99 in 10.0 mi ESE 4.6 mph - N/A   Clear
9:53 PM 21.9 °F - 21.0 °F 96% 30.00 in 10.0 mi Calm Calm - N/A   Clear
10:51 PM 21.2 °F - 19.4 °F 93% 30.01 in 10.0 mi Calm Calm - N/A   Mostly Cloudy
10:53 PM 21.0 °F - 19.9 °F 96% 30.02 in 10.0 mi Calm Calm - N/A   Mostly Cloudy
11:25 PM 23.0 °F 18.4 °F 21.0 °F 92% 30.01 in 10.0 mi East 3.5 mph - N/A   Mostly Cloudy
11:53 PM 28.0 °F 20.8 °F 27.0 °F 96% 30.03 in 10.0 mi ESE 6.9 mph - N/A   Overcast